| time (UTC) | temp F | wind direction | speed knots | gust knots | rain 1hr in | rain 24hr in | rain mn in | humidity % | barometer mb |
| 20260901200648 | 79 | 207 | 4.3 | 7.8 | 0.00 | 0.01 | 0.01 | 47 | 1010.1 |
| 20260901195648 | 77 | 249 | 1.7 | 8.7 | 0.00 | 0.01 | 0.01 | 51 | 1010.2 |
| 20260901194652 | 77 | 249 | 1.7 | 8.7 | 0.00 | 0.01 | 0.01 | 51 | 1010.2 |
| 20260901193648 | 78 | 221 | 5.2 | 9.6 | 0.00 | 0.01 | 0.01 | 46 | 1010.1 |
| 20260901192648 | 78 | 221 | 5.2 | 9.6 | 0.00 | 0.01 | 0.01 | 46 | 1010.1 |
| 20260901191652 | 79 | 196 | 2.6 | 10.4 | 0.00 | 0.01 | 0.01 | 48 | 1010.4 |
| 20260901190649 | 79 | 196 | 2.6 | 10.4 | 0.00 | 0.01 | 0.01 | 48 | 1010.4 |
| 20260901185648 | 79 | 194 | 1.7 | 11.3 | 0.00 | 0.01 | 0.01 | 46 | 1010.5 |
| 20260901184650 | 79 | 194 | 1.7 | 11.3 | 0.00 | 0.01 | 0.01 | 46 | 1010.5 |
| 20260901183650 | 78 | 192 | 2.6 | 8.7 | 0.00 | 0.01 | 0.01 | 49 | 1010.6 |
| 20260901181649 | 77 | 215 | 4.3 | 10.4 | 0.00 | 0.01 | 0.01 | 49 | 1010.7 |
| 20260901180650 | 77 | 215 | 4.3 | 10.4 | 0.00 | 0.01 | 0.01 | 49 | 1010.7 |
| 20260901175649 | 77 | 71 | 3.5 | 8.7 | 0.00 | 0.01 | 0.01 | 51 | 1010.9 |
| 20260901174649 | 77 | 71 | 3.5 | 8.7 | 0.00 | 0.01 | 0.01 | 51 | 1010.9 |
| 20260901173649 | 76 | 55 | 0.9 | 10.4 | 0.00 | 0.01 | 0.01 | 52 | 1010.8 |
| 20260901172649 | 76 | 55 | 0.9 | 10.4 | 0.00 | 0.01 | 0.01 | 52 | 1010.8 |
| 20260901171648 | 76 | 327 | 1.7 | 13.0 | 0.00 | 0.01 | 0.01 | 53 | 1010.9 |
| 20260901170648 | 75 | 219 | 1.7 | 13.0 | 0.00 | 0.01 | 0.01 | 55 | 1011.2 |
| 20260901165649 | 75 | 219 | 1.7 | 13.0 | 0.00 | 0.01 | 0.01 | 55 | 1011.2 |
| 20260901164649 | 75 | 162 | 1.7 | 7.8 | 0.00 | 0.01 | 0.01 | 56 | 1011.4 |
| 20260901163648 | 75 | 162 | 1.7 | 7.8 | 0.00 | 0.01 | 0.01 | 56 | 1011.4 |
| 20260901162649 | 74 | 217 | 3.5 | 12.2 | 0.00 | 0.01 | 0.01 | 59 | 1011.6 |
| 20260901161624 | 74 | 217 | 3.5 | 12.2 | 0.00 | 0.01 | 0.01 | 59 | 1011.6 |
| 20260901160626 | 72 | 197 | 1.7 | 12.2 | 0.00 | 0.01 | 0.01 | 61 | 1011.6 |
| 20260901155626 | 72 | 197 | 1.7 | 12.2 | 0.00 | 0.01 | 0.01 | 61 | 1011.6 |
| 20260901154625 | 72 | 304 | 1.7 | 8.7 | 0.01 | 0.01 | 0.01 | 64 | 1011.5 |
| 20260901153626 | 72 | 304 | 1.7 | 8.7 | 0.01 | 0.01 | 0.01 | 64 | 1011.5 |
| 20260901152625 | 70 | 201 | 2.6 | 6.1 | 0.01 | 0.01 | 0.01 | 68 | 1011.6 |
| 20260901151626 | 70 | 201 | 2.6 | 6.1 | 0.01 | 0.01 | 0.01 | 68 | 1011.6 |
| 20260901140626 | 64 | 81 | 0.0 | 3.5 | 0.00 | 0.00 | 0.00 | 78 | 1011.4 |
| 20260901135626 | 63 | 265 | 0.0 | 0.9 | 0.00 | 0.00 | 0.00 | 81 | 1011.6 |
| 20260901134626 | 63 | 265 | 0.0 | 0.9 | 0.00 | 0.00 | 0.00 | 81 | 1011.6 |
| 20260901133627 | 61 | 292 | 0.0 | 3.5 | 0.00 | 0.00 | 0.00 | 86 | 1011.6 |
| 20260901132626 | 61 | 292 | 0.0 | 3.5 | 0.00 | 0.00 | 0.00 | 86 | 1011.6 |
| 20260901131627 | 59 | 284 | 0.0 | 0.9 | 0.00 | 0.00 | 0.00 | 89 | 1011.6 |
| 20260901130626 | 59 | 284 | 0.0 | 0.9 | 0.00 | 0.00 | 0.00 | 89 | 1011.6 |
| 20260901125625 | 58 | 275 | 0.0 | 0.0 | 0.00 | 0.00 | 0.00 | 90 | 1011.5 |
| 20260901124626 | 58 | 275 | 0.0 | 0.0 | 0.00 | 0.00 | 0.00 | 90 | 1011.5 |
| 20260901123626 | 57 | 275 | 0.0 | 0.9 | 0.00 | 0.00 | 0.00 | 91 | 1011.2 |
| 20260901122626 | 57 | 275 | 0.0 | 0.9 | 0.00 | 0.00 | 0.00 | 91 | 1011.2 |
| 20260901121629 | 57 | 286 | 0.0 | 1.7 | 0.00 | 0.00 | 0.00 | 90 | 1011.0 |
| 20260901120630 | 57 | 286 | 0.0 | 1.7 | 0.00 | 0.00 | 0.00 | 90 | 1011.0 |
| 20260901115625 | 58 | 326 | 0.0 | 0.9 | 0.00 | 0.00 | 0.00 | 89 | 1011.0 |
| 20260901114627 | 58 | 326 | 0.0 | 0.9 | 0.00 | 0.00 | 0.00 | 89 | 1011.0 |
| 20260901113630 | 58 | 277 | 0.0 | 0.9 | 0.00 | 0.00 | 0.00 | 88 | 1010.9 |
| 20260901112626 | 58 | 277 | 0.0 | 0.9 | 0.00 | 0.00 | 0.00 | 88 | 1010.9 |
| 20260901111627 | 59 | 300 | 0.0 | 0.0 | 0.00 | 0.00 | 0.00 | 86 | 1010.7 |
| 20260901110627 | 59 | 300 | 0.0 | 0.0 | 0.00 | 0.00 | 0.00 | 86 | 1010.7 |
| 20260901105627 | 59 | 269 | 0.0 | 1.7 | 0.00 | 0.00 | 0.00 | 85 | 1010.7 |
| 20260901104626 | 60 | 279 | 0.9 | 4.3 | 0.00 | 0.00 | 0.00 | 83 | 1010.6 |
| 20260901103626 | 60 | 279 | 0.9 | 4.3 | 0.00 | 0.00 | 0.00 | 83 | 1010.6 |
| 20260901102626 | 60 | 259 | 0.0 | 1.7 | 0.00 | 0.00 | 0.00 | 82 | 1010.5 |
| 20260901101627 | 60 | 259 | 0.0 | 1.7 | 0.00 | 0.00 | 0.00 | 82 | 1010.5 |
| 20260901100626 | 61 | 284 | 0.0 | 0.9 | 0.00 | 0.00 | 0.00 | 81 | 1010.5 |
| 20260901094628 | 62 | 277 | 0.0 | 0.9 | 0.00 | 0.00 | 0.00 | 80 | 1010.4 |
| 20260901093627 | 62 | 277 | 0.0 | 0.9 | 0.00 | 0.00 | 0.00 | 80 | 1010.4 |
| 20260901092627 | 63 | 281 | 0.0 | 1.7 | 0.00 | 0.00 | 0.00 | 78 | 1010.3 |
| 20260901091627 | 63 | 281 | 0.0 | 1.7 | 0.00 | 0.00 | 0.00 | 78 | 1010.3 |
| 20260901090627 | 63 | 219 | 0.0 | 3.5 | 0.00 | 0.00 | 0.00 | 77 | 1010.4 |
| 20260901085627 | 63 | 219 | 0.0 | 3.5 | 0.00 | 0.00 | 0.00 | 77 | 1010.4 |
| 20260901084627 | 64 | 271 | 0.0 | 6.1 | 0.00 | 0.00 | 0.00 | 79 | 1010.6 |
| 20260901083631 | 64 | 271 | 0.0 | 6.1 | 0.00 | 0.00 | 0.00 | 79 | 1010.6 |
| 20260901082627 | 65 | 267 | 0.0 | 5.2 | 0.00 | 0.00 | 0.00 | 78 | 1010.7 |
| 20260901081629 | 65 | 267 | 0.0 | 5.2 | 0.00 | 0.00 | 0.00 | 78 | 1010.7 |
| 20260901071637 | 62 | 284 | 0.0 | 0.0 | 0.00 | 0.00 | 0.00 | 87 | 1010.9 |
| 20260901070628 | 62 | 284 | 0.0 | 0.0 | 0.00 | 0.00 | 0.00 | 87 | 1010.9 |
| 20260901065630 | 62 | 284 | 0.0 | 0.9 | 0.00 | 0.00 | 0.00 | 88 | 1011.0 |
| 20260901064630 | 62 | 284 | 0.0 | 0.9 | 0.00 | 0.00 | 0.00 | 88 | 1011.0 |
| 20260901055629 | 62 | 57 | 0.0 | 0.9 | 0.00 | 0.00 | 0.00 | 88 | 1010.8 |
| 20260901054628 | 62 | 57 | 0.0 | 0.9 | 0.00 | 0.00 | 0.00 | 88 | 1010.8 |
| 20260901040629 | 63 | 247 | 0.0 | 0.0 | 0.00 | 0.00 | 0.00 | 87 | 1010.7 |
| 20260901035628 | 63 | 247 | 0.0 | 0.0 | 0.00 | 0.00 | 0.00 | 87 | 1010.7 |
| 20260901034630 | 62 | 256 | 0.0 | 0.0 | 0.00 | 0.00 | 0.00 | 88 | 1010.7 |
| 20260901033629 | 62 | 256 | 0.0 | 0.0 | 0.00 | 0.00 | 0.00 | 88 | 1010.7 |
| 20260901032630 | 62 | 256 | 0.0 | 0.0 | 0.00 | 0.00 | 0.00 | 89 | 1010.7 |
| 20260901031628 | 62 | 256 | 0.0 | 0.0 | 0.00 | 0.00 | 0.00 | 89 | 1010.7 |
| 20260901030629 | 61 | 256 | 0.0 | 0.0 | 0.00 | 0.00 | 0.00 | 91 | 1010.7 |
| 20260901025630 | 61 | 256 | 0.0 | 0.0 | 0.00 | 0.00 | 0.00 | 91 | 1010.7 |
| 20260901022630 | 61 | 256 | 0.0 | 0.0 | 0.00 | 0.00 | 0.00 | 92 | 1010.6 |
| 20260901021630 | 61 | 256 | 0.0 | 0.0 | 0.00 | 0.00 | 0.00 | 92 | 1010.6 |
| 20260901001531 | 73 | 257 | 0.0 | 0.0 | 0.00 | 0.00 | 0.00 | 71 | 1009.5 |
| 20260901000530 | 73 | 257 | 0.0 | 0.0 | 0.00 | 0.00 | 0.00 | 71 | 1009.5 |
| 20260831235530 | 75 | 257 | 0.0 | 0.9 | 0.00 | 0.00 | 0.00 | 68 | 1009.6 |
| 20260831234531 | 75 | 257 | 0.0 | 0.9 | 0.00 | 0.00 | 0.00 | 68 | 1009.6 |
| 20260831231540 | 78 | 300 | 0.0 | 0.9 | 0.00 | 0.00 | 0.00 | 57 | 1009.4 |
| 20260831230531 | 78 | 300 | 0.0 | 0.9 | 0.00 | 0.00 | 0.00 | 57 | 1009.4 |
| 20260831225530 | 79 | 163 | 0.0 | 1.7 | 0.00 | 0.00 | 0.00 | 58 | 1009.1 |
| 20260831224530 | 79 | 163 | 0.0 | 1.7 | 0.00 | 0.00 | 0.00 | 58 | 1009.1 |
| 20260831223530 | 80 | 252 | 0.0 | 5.2 | 0.00 | 0.00 | 0.00 | 57 | 1009.2 |
| 20260831222530 | 80 | 194 | 3.5 | 5.2 | 0.00 | 0.00 | 0.00 | 57 | 1009.2 |
| 20260831221531 | 80 | 194 | 3.5 | 5.2 | 0.00 | 0.00 | 0.00 | 57 | 1009.2 |
| 20260831220531 | 81 | 201 | 0.0 | 6.1 | 0.00 | 0.00 | 0.00 | 59 | 1009.4 |
| 20260831215530 | 81 | 201 | 0.0 | 6.1 | 0.00 | 0.00 | 0.00 | 59 | 1009.4 |
| 20260831214532 | 81 | 211 | 1.7 | 6.1 | 0.00 | 0.00 | 0.00 | 61 | 1009.4 |
| 20260831213532 | 81 | 211 | 1.7 | 6.1 | 0.00 | 0.00 | 0.00 | 61 | 1009.4 |
| 20260831212532 | 81 | 217 | 0.0 | 7.8 | 0.00 | 0.00 | 0.00 | 63 | 1009.4 |
| 20260831211532 | 81 | 217 | 0.0 | 7.8 | 0.00 | 0.00 | 0.00 | 63 | 1009.4 |
| 20260831210531 | 80 | 201 | 5.2 | 7.0 | 0.00 | 0.00 | 0.00 | 62 | 1009.4 |
| 20260831205532 | 80 | 201 | 5.2 | 7.0 | 0.00 | 0.00 | 0.00 | 62 | 1009.4 |
| 20260831204531 | 80 | 208 | 1.7 | 5.2 | 0.00 | 0.00 | 0.00 | 70 | 1009.2 |
| 20260831202532 | 79 | 342 | 0.9 | 8.7 | 0.00 | 0.00 | 0.00 | 70 | 1009.2 |
| 20260831201531 | 79 | 342 | 0.9 | 8.7 | 0.00 | 0.00 | 0.00 | 70 | 1009.2 |